GW3217 Weather Reports


time (UTC)temp
C
wind
direction
speed
KPH
gust
KPH
rain 1hr
cm
rain 24hr
cm
rain mn
cm
humidity
%
barometer
mb
20260503034040 5 109 0.0 0.0 0.00 0.25 0.25 61 1013.6
20260503033537 5 119 1.6 1.6 0.00 0.25 0.25 61 1013.5
20260503033035 5 127 1.6 1.6 0.00 0.25 0.25 61 1013.5
20260503032533 6 132 0.0 0.0 0.00 0.25 0.25 59 1013.4
20260503032031 6 107 0.0 0.0 0.00 0.25 0.25 60 1013.6
20260503031529 6 123 1.6 1.6 0.00 0.25 0.25 59 1013.5
20260503031026 6 104 1.6 1.6 0.00 0.25 0.25 59 1013.6
20260503030521 6 11 1.6 3.2 0.00 0.25 0.25 60 1013.4
20260503030019 6 120 0.0 0.0 0.00 0.25 0.25 61 1013.8
20260503025515 6 139 0.0 0.0 0.00 0.25 0.25 62 1013.7
20260503025014 6 126 0.0 0.0 0.00 0.25 0.25 60 1013.6
20260503024509 6 306 3.2 3.2 0.00 0.25 0.25 59 1013.6
20260503024007 6 112 0.0 0.0 0.00 0.25 0.25 57 1013.8
20260503023503 6 121 0.0 1.6 0.00 0.25 0.25 59 1013.8
20260503023000 6 105 0.0 1.6 0.00 0.25 0.25 59 1013.6
20260503022456 7 119 0.0 1.6 0.00 0.25 0.25 58 1013.8
20260503021951 7 95 0.0 0.0 0.00 0.25 0.25 59 1013.8
20260503021448 7 143 0.0 1.6 0.00 0.25 0.25 60 1013.8
20260503020945 7 228 3.2 4.8 0.00 0.25 0.25 57 1013.9
20260503020443 7 163 3.2 3.2 0.00 0.25 0.25 59 1013.9
20260503015939 6 119 1.6 1.6 0.00 0.25 0.25 58 1013.9
20260503015436 6 137 1.6 1.6 0.00 0.25 0.25 63 1013.7
20260503014932 6 117 0.0 0.0 0.00 0.25 0.25 59 1013.6
20260503014429 6 122 0.0 1.6 0.00 0.25 0.25 59 1013.8
20260503013927 7 117 0.0 0.0 0.00 0.25 0.25 61 1013.6
20260503013424 7 117 0.0 0.0 0.00 0.25 0.25 59 1013.7
20260503012921 7 121 0.0 0.0 0.00 0.25 0.25 59 1013.6
20260503012419 7 117 0.0 0.0 0.00 0.25 0.25 58 1013.8
20260503011915 7 113 0.0 0.0 0.00 0.25 0.25 58 1013.7
20260503011412 7 117 0.0 0.0 0.00 0.25 0.25 57 1013.8
20260503010909 7 110 1.6 1.6 0.00 0.25 0.25 58 1013.8
20260503010406 7 120 0.0 1.6 0.00 0.25 0.25 57 1013.6
20260503005903 7 122 0.0 1.6 0.00 0.25 0.25 55 1013.5
20260503005400 8 124 0.0 1.6 0.00 0.25 0.25 54 1013.4
20260503004856 8 119 1.6 1.6 0.00 0.25 0.25 55 1013.4
20260503004354 8 99 0.0 1.6 0.00 0.25 0.25 56 1013.6
20260503003852 8 113 0.0 0.0 0.00 0.25 0.25 55 1013.5
20260503003348 8 354 3.2 4.8 0.00 0.25 0.25 52 1013.3
20260503002845 8 163 1.6 1.6 0.00 0.25 0.25 53 1013.5
20260503002342 8 108 1.6 3.2 0.00 0.25 0.25 54 1013.2
20260503001838 8 129 1.6 1.6 0.00 0.25 0.25 54 1013.4
20260503001335 8 157 3.2 3.2 0.00 0.25 0.25 53 1013.4
20260503000833 9 112 0.0 0.0 0.00 0.25 0.25 54 1013.2
20260503000330 9 112 1.6 1.6 0.00 0.25 0.25 54 1013.2
20260502235827 9 117 0.0 0.0 0.00 0.25 0.25 54 1013.2
20260502235324 9 146 3.2 3.2 0.00 0.25 0.25 51 1013.0
20260502234820 9 150 0.0 1.6 0.00 0.25 0.25 54 1013.0
20260502234318 9 185 3.2 3.2 0.00 0.25 0.25 56 1013.0
20260502233814 9 113 0.0 1.6 0.00 0.25 0.25 60 1012.9
20260502233311 10 106 0.0 0.0 0.00 0.25 0.25 60 1012.7
20260502232808 10 128 1.6 1.6 0.00 0.25 0.25 58 1012.8
20260502232305 10 102 0.0 0.0 0.00 0.25 0.25 57 1012.7
20260502231800 10 106 0.0 0.0 0.00 0.25 0.25 57 1012.5
20260502231258 10 109 0.0 0.0 0.00 0.25 0.25 58 1012.4
20260502230756 10 103 0.0 0.0 0.00 0.25 0.25 56 1012.6
20260502230254 11 142 1.6 1.6 0.00 0.25 0.25 54 1012.4
20260502225750 11 104 0.0 0.0 0.00 0.25 0.25 57 1012.8
20260502225247 11 104 0.0 0.0 0.00 0.25 0.25 56 1012.6
20260502224744 11 108 0.0 0.0 0.00 0.25 0.25 55 1012.7
20260502224240 11 111 0.0 0.0 0.00 0.25 0.25 55 1012.6
20260502223738 11 108 1.6 1.6 0.00 0.25 0.25 57 1012.5
20260502223236 11 117 0.0 0.0 0.00 0.25 0.25 59 1012.8
20260502222733 11 259 3.2 3.2 0.00 0.25 0.25 57 1012.5
20260502222230 11 118 3.2 3.2 0.00 0.25 0.25 58 1012.6
20260502221725 11 107 0.0 1.6 0.00 0.25 0.25 57 1012.5
20260502221223 11 100 0.0 0.0 0.00 0.25 0.25 57 1012.3
20260502220719 11 121 1.6 1.6 0.00 0.25 0.25 55 1012.5
20260502220215 11 122 0.0 1.6 0.00 0.25 0.25 55 1012.5
20260502215712 11 103 0.0 0.0 0.00 0.25 0.25 55 1012.6
20260502215209 12 137 1.6 3.2 0.00 0.25 0.25 52 1012.4
20260502214707 11 93 0.0 0.0 0.00 0.25 0.25 53 1012.3
20260502214204 12 231 4.8 6.4 0.00 0.25 0.25 50 1012.1
20260502213701 12 199 3.2 3.2 0.00 0.25 0.25 50 1012.4
20260502213158 12 104 1.6 1.6 0.00 0.25 0.25 48 1012.2
20260502212656 12 105 1.6 1.6 0.00 0.25 0.25 52 1012.1
20260502212154 12 96 1.6 1.6 0.00 0.25 0.25 51 1012.2
20260502211649 12 139 1.6 3.2 0.00 0.25 0.25 50 1012.3
20260502211141 12 42 3.2 3.2 0.00 0.25 0.25 49 1011.9
20260502210639 11 98 3.2 4.8 0.00 0.25 0.25 50 1012.0
20260502210136 11 93 1.6 1.6 0.00 0.25 0.25 50 1012.3
20260502205632 12 115 0.0 0.0 0.00 0.25 0.25 53 1012.1
20260502205129 11 283 3.2 3.2 0.00 0.25 0.25 49 1012.1
20260502204626 11 154 1.6 3.2 0.00 0.25 0.25 49 1012.2
20260502204124 11 306 3.2 4.8 0.00 0.25 0.25 49 1012.1
20260502203621 12 103 1.6 1.6 0.00 0.25 0.25 51 1012.2
20260502203119 12 100 0.0 0.0 0.00 0.25 0.25 55 1012.2
20260502202613 13 85 1.6 1.6 0.00 0.25 0.25 48 1012.3
20260502202112 13 265 1.6 3.2 0.00 0.25 0.25 50 1012.3
20260502201608 15 90 1.6 1.6 0.00 0.25 0.25 53 1012.3
20260502201104 13 222 3.2 3.2 0.00 0.25 0.25 52 1012.4
20260502200559 12 311 4.8 4.8 0.00 0.25 0.25 52 1012.4
20260502200052 13 99 1.6 3.2 0.00 0.25 0.25 51 1012.4
20260502195550 13 97 1.6 1.6 0.00 0.25 0.25 50 1012.4
20260502195045 15 110 0.0 1.6 0.00 0.25 0.25 50 1012.5
20260502194542 13 110 0.0 1.6 0.00 0.25 0.25 55 1012.6
20260502194039 13 115 1.6 3.2 0.00 0.25 0.25 52 1012.6
20260502193536 12 114 4.8 4.8 0.00 0.25 0.25 52 1013.0
20260502193033 12 112 0.0 0.0 0.00 0.25 0.25 55 1013.1
20260502192528 13 93 1.6 1.6 0.00 0.25 0.25 58 1013.0
20260502192026 12 260 6.4 9.7 0.00 0.25 0.25 57 1012.7
20260502191523 12 103 1.6 3.2 0.00 0.25 0.25 58 1012.9
20260502191021 14 326 3.2 4.8 0.00 0.25 0.25 54 1013.1
20260502190518 13 134 3.2 3.2 0.00 0.25 0.25 55 1013.2
20260502190015 13 103 0.0 1.6 0.00 0.25 0.25 55 1013.1
20260502185509 12 140 1.6 3.2 0.00 0.25 0.25 58 1013.3
20260502185007 12 102 1.6 1.6 0.00 0.25 0.25 56 1013.4
20260502184502 12 117 1.6 3.2 0.00 0.25 0.25 57 1013.3
20260502183959 11 100 0.0 1.6 0.00 0.25 0.25 61 1013.5
20260502183455 11 95 1.6 1.6 0.00 0.25 0.25 63 1013.4
20260502182950 12 4 3.2 4.8 0.00 0.25 0.25 59 1013.4
20260502182446 12 53 1.6 1.6 0.00 0.25 0.25 62 1013.6
20260502181942 13 122 4.8 4.8 0.00 0.25 0.25 62 1013.5
20260502181440 13 106 0.0 0.0 0.00 0.25 0.25 60 1013.6
20260502180938 12 112 1.6 1.6 0.00 0.25 0.25 66 1013.6
20260502180435 10 147 1.6 1.6 0.00 0.25 0.25 67 1013.6
20260502170355 12 44 1.6 1.6 0.00 0.25 0.25 70 1014.1
20260502164342 10 25 4.8 4.8 0.00 0.25 0.25 71 1014.2
20260502163838 10 172 4.8 4.8 0.00 0.25 0.25 79 1014.1
20260502163334 10 190 1.6 3.2 0.00 0.25 0.25 81 1014.2
20260502162832 9 311 3.2 3.2 0.00 0.25 0.25 82 1014.4
20260502162328 8 218 3.2 6.4 0.00 0.25 0.25 87 1014.4
20260502161826 8 115 1.6 1.6 0.00 0.25 0.25 88 1014.2
20260502161321 8 340 6.4 11.3 0.00 0.25 0.25 85 1014.5
20260502160820 9 108 1.6 3.2 0.00 0.25 0.25 84 1014.5
20260502160318 9 110 0.0 1.6 0.00 0.25 0.25 82 1014.1
20260502152253 8 94 3.2 3.2 0.00 0.25 0.25 85 1014.2
20260502151750 8 53 3.2 4.8 0.00 0.25 0.25 85 1014.1
20260502151247 9 293 6.4 9.7 0.00 0.25 0.25 84 1014.0
20260502150745 9 77 3.2 4.8 0.00 0.25 0.25 84 1014.2
20260502150242 9 112 1.6 1.6 0.00 0.25 0.25 85 1014.2
20260502130630 8 342 3.2 3.2 0.00 0.25 0.25 90 1014.0
20260502130128 8 112 1.6 1.6 0.00 0.25 0.25 91 1013.8
20260502123614 7 112 0.0 1.6 0.00 0.25 0.25 99 1014.0
20260502123110 7 123 0.0 1.6 0.00 0.25 0.25 99 1013.9
20260502122606 7 82 1.6 1.6 0.00 0.25 0.25 99 1014.2
20260502122103 7 125 0.0 1.6 0.00 0.25 0.25 99 1014.2
20260502121601 7 127 0.0 1.6 0.00 0.25 0.25 99 1014.2
20260502121058 7 108 1.6 1.6 0.00 0.25 0.25 99 1013.9
20260502120554 7 101 1.6 1.6 0.00 0.25 0.25 99 1014.1
20260502115550 6 111 0.0 0.0 0.00 0.25 0.25 99 1014.2
20260502115045 6 113 0.0 0.0 0.00 0.25 0.25 99 1014.1
20260502114542 6 97 0.0 1.6 0.00 0.25 0.25 99 1014.1
20260502114038 6 110 1.6 1.6 0.00 0.25 0.25 99 1014.1
20260502113537 6 112 0.0 0.0 0.00 0.25 0.25 99 1014.1
20260502113035 6 112 0.0 0.0 0.00 0.25 0.25 99 1013.8
20260502112532 6 101 0.0 0.0 0.00 0.25 0.25 99 1014.0
20260502112030 6 116 0.0 0.0 0.00 0.25 0.25 99 1013.9
20260502111527 6 115 0.0 0.0 0.00 0.25 0.25 99 1013.8
20260502111024 6 109 0.0 0.0 0.00 0.25 0.25 99 1014.0
20260502110521 6 123 0.0 1.6 0.00 0.25 0.25 99 1013.8
20260502110019 6 112 0.0 0.0 0.00 0.25 0.25 99 1013.9
20260502105516 6 113 0.0 0.0 0.00 0.25 0.25 99 1013.7
20260502105014 6 115 0.0 0.0 0.00 0.25 0.25 99 1013.5
20260502104511 6 117 0.0 0.0 0.00 0.25 0.25 99 1013.5
20260502104009 6 115 0.0 0.0 0.00 0.25 0.25 99 1013.4
20260502103506 6 116 0.0 0.0 0.00 0.25 0.25 99 1013.2
20260502103004 6 115 0.0 0.0 0.00 0.25 0.25 99 1013.4
20260502102459 6 116 0.0 0.0 0.13 0.25 0.25 99 1013.6
20260502101956 6 115 0.0 0.0 0.13 0.25 0.25 99 1013.4
20260502101454 6 114 0.0 0.0 0.00 0.23 0.23 99 1013.4
20260502100953 6 110 0.0 0.0 0.18 0.23 0.23 99 1013.6
20260502100451 6 112 0.0 0.0 0.30 0.23 0.23 99 1013.6
20260502091426 6 93 0.0 0.0 0.00 0.10 0.10 97 1013.4
20260502090922 6 103 0.0 0.0 0.13 0.10 0.10 97 1013.2
20260502090420 6 114 0.0 1.6 0.30 0.10 0.10 97 1013.3
20260502071314 7 109 1.6 1.6 0.00 0.00 0.00 94 1013.6
20260502070813 7 119 1.6 3.2 0.00 0.00 0.00 93 1013.7
20260502070310 7 112 0.0 0.0 0.00 0.00 0.00 93 1013.5
20260502065809 7 94 0.0 1.6 0.00 0.00 0.00 93 1013.7
20260502065306 7 110 1.6 1.6 0.00 0.00 0.00 93 1013.4
20260502064804 7 95 0.0 1.6 0.00 0.00 0.00 93 1013.7
20260502064302 7 115 0.0 0.0 0.00 0.00 0.00 93 1013.8
20260502063759 7 114 0.0 0.0 0.00 0.00 0.00 93 1013.5
20260502063257 7 116 0.0 0.0 0.00 0.00 0.00 93 1013.7
20260502062753 7 112 0.0 0.0 0.00 0.00 0.00 93 1013.7
20260502062251 7 102 0.0 0.0 0.00 0.00 0.00 93 1013.7
20260502061750 7 108 0.0 0.0 0.00 0.00 0.00 93 1013.7
20260502061248 7 107 0.0 0.0 0.00 0.00 0.00 92 1013.9
20260502060741 7 80 1.6 1.6 0.00 0.00 0.00 92 1013.7
20260502060237 7 113 0.0 0.0 0.00 0.00 0.00 92 1013.5
20260502055736 7 107 0.0 0.0 0.00 0.00 0.00 92 1013.7
20260502055233 7 106 0.0 0.0 0.00 0.00 0.00 91 1013.8
20260502054732 7 108 0.0 1.6 0.00 0.00 0.00 89 1014.0
20260502054229 8 82 1.6 3.2 0.00 0.00 0.00 86 1014.2
20260502053727 8 116 0.0 0.0 0.00 0.00 0.00 84 1014.1
20260502053224 8 112 0.0 0.0 0.00 0.00 0.00 83 1014.0
20260502052722 8 98 0.0 0.0 0.00 0.00 0.00 84 1014.0
20260502052220 8 108 0.0 0.0 0.00 0.00 0.00 84 1013.9
20260502051717 8 84 0.0 0.0 0.00 0.00 0.00 84 1013.9
20260502051215 -17 0.0 0.0 0.00 0.00 0.00 1014.0
20260502050711 8 109 0.0 0.0 0.00 0.00 0.00 82 1013.6
20260502050208 8 109 0.0 0.0 0.00 0.00 0.00 82 1013.7
20260502045705 8 109 0.0 0.0 0.00 0.00 0.00 82 1013.5
20260502045202 8 109 0.0 1.6 0.00 0.00 0.00 82 1013.6
20260502044658 8 111 0.0 0.0 0.00 0.00 0.00 82 1013.9
20260502044154 8 110 0.0 0.0 0.00 0.00 0.00 82 1013.8
20260502043653 8 117 0.0 0.0 0.00 0.00 0.00 81 1013.9
20260502043150 8 117 0.0 0.0 0.00 0.00 0.00 79 1014.0
20260502042649 8 111 0.0 0.0 0.00 0.00 0.00 78 1014.0
20260502042146 8 109 0.0 0.0 0.00 0.00 0.00 77 1013.7
20260502041644 8 109 0.0 0.0 0.00 0.00 0.00 77 1013.9
20260502041141 8 109 0.0 0.0 0.00 0.00 0.00 78 1013.8
20260502040638 8 105 0.0 1.6 0.00 0.00 0.00 77 1013.6
20260502040135 8 105 1.6 1.6 0.00 0.00 0.00 78 1013.9
20260502035631 8 110 0.0 0.0 0.00 0.00 0.00 78 1014.1
20260502035128 8 112 0.0 1.6 0.00 0.00 0.00 78 1013.8
20260502034626 8 115 0.0 0.0 0.00 0.00 0.00 78 1013.8
20260502034124 8 110 0.0 0.0 0.00 0.00 0.00 79 1014.0